EW9945 Weather Reports


time (UTC)temp
F
wind
direction
speed
knots
gust
knots
rain 1hr
in
rain 24hr
in
rain mn
in
humidity
%
barometer
mb
20260831014555 65 300 0.0 0.0 0.00 0.00 0.00 87 1019.9
20260831013100 65 300 0.0 0.0 0.00 0.00 0.00 88 1019.8
20260831011654 66 300 0.0 0.0 0.00 0.00 0.00 88 1019.8
20260831010114 66 300 0.0 3.5 0.00 0.00 0.00 88 1019.5
20260831004558 67 300 0.0 0.9 0.00 0.00 0.00 89 1019.7
20260831003103 68 300 0.0 0.0 0.00 0.00 0.00 88 1019.4
20260831001652 68 300 0.0 0.0 0.00 0.00 0.00 87 1019.0
20260831000052 68 300 0.0 0.0 0.00 0.00 0.00 86 1018.7
20260830234551 68 300 0.0 0.0 0.00 0.00 0.00 86 1018.5
20260830233051 68 300 0.0 0.0 0.00 0.00 0.00 86 1018.7
20260830231652 69 300 0.0 0.0 0.00 0.00 0.00 86 1018.5
20260830230049 69 300 0.0 0.0 0.00 0.00 0.00 85 1018.5
20260830224552 69 300 0.0 0.0 0.00 0.00 0.00 87 1018.7
20260830223048 69 300 0.0 0.0 0.00 0.00 0.00 87 1018.7
20260830221650 69 300 0.0 0.0 0.00 0.00 0.00 88 1018.8
20260830220048 69 300 0.0 0.0 0.00 0.00 0.00 88 1018.6
20260830214547 69 300 0.0 0.0 0.00 0.00 0.00 87 1018.7
20260830213047 70 300 0.0 1.7 0.00 0.00 0.00 86 1018.8
20260830211648 70 300 0.0 0.0 0.00 0.00 0.00 84 1018.7
20260830210048 71 300 0.0 0.0 0.00 0.00 0.00 81 1018.6
20260830204547 73 300 0.0 0.0 0.00 0.00 0.00 77 1018.6
20260830203047 73 300 0.0 0.0 0.00 0.00 0.00 75 1018.5
20260830201649 73 300 0.0 0.0 0.00 0.00 0.00 74 1018.5
20260830200045 73 300 0.0 0.0 0.00 0.00 0.00 74 1018.5
20260830194559 73 300 0.0 0.0 0.00 0.00 0.00 74 1018.6
20260830193044 74 300 0.0 0.0 0.00 0.00 0.00 72 1018.6
20260830191644 74 300 0.0 0.0 0.00 0.00 0.00 75 1018.7
20260830190044 74 300 0.0 0.9 0.00 0.00 0.00 71 1018.8
20260830184543 75 300 0.0 0.0 0.00 0.00 0.00 69 1018.8
20260830183045 76 173 0.9 2.6 0.00 0.00 0.00 66 1018.8
20260830181644 77 161 0.0 0.9 0.00 0.00 0.00 65 1018.9
20260830180043 77 160 0.0 0.0 0.00 0.00 0.00 64 1018.9
20260830174558 77 159 0.0 0.0 0.00 0.00 0.00 66 1018.8
20260830173041 76 159 0.0 0.0 0.00 0.00 0.00 68 1019.0
20260830171637 75 165 0.0 1.7 0.00 0.00 0.00 67 1019.2
20260830170035 75 174 0.0 3.5 0.00 0.00 0.00 67 1019.4
20260830164533 75 296 2.6 7.8 0.00 0.00 0.00 65 1019.5
20260830163040 73 134 0.0 5.2 0.00 0.00 0.00 71 1019.5
20260830161628 73 138 0.0 2.6 0.00 0.00 0.00 70 1019.7
20260830160026 72 298 0.9 2.6 0.00 0.00 0.00 70 1020.0
20260830154524 71 170 0.0 5.2 0.00 0.00 0.00 72 1020.1
20260830153032 70 166 0.0 4.3 0.00 0.00 0.00 72 1020.1
20260830151624 71 137 0.0 5.2 0.00 0.00 0.00 69 1020.2
20260830150022 71 146 0.9 4.3 0.00 0.00 0.00 70 1020.2
20260830144523 70 115 0.0 1.7 0.00 0.00 0.00 71 1020.1
20260830143021 69 149 0.0 4.3 0.00 0.00 0.00 71 1020.0
20260830141621 69 119 0.0 2.6 0.00 0.00 0.00 72 1020.1
20260830140018 67 120 0.0 0.9 0.00 0.00 0.00 73 1019.9
20260830134520 68 120 0.0 0.0 0.00 0.00 0.00 71 1019.9
20260830133022 67 119 0.0 0.9 0.00 0.00 0.00 73 1020.0
20260830131617 68 149 0.0 2.6 0.00 0.00 0.00 76 1020.3
20260830130012 64 149 0.0 0.0 0.00 0.00 0.00 84 1020.6
20260830124507 61 149 0.0 0.9 0.00 0.00 0.00 89 1020.6
20260830123004 60 149 0.0 0.0 0.00 0.00 0.00 90 1020.7
20260830121606 59 149 0.0 0.0 0.00 0.00 0.00 91 1020.7
20260830120108 58 149 0.0 0.0 0.00 0.00 0.00 91 1020.6
20260830114558 58 149 0.0 0.0 0.00 0.00 0.00 91 1020.7
20260830113057 57 149 0.0 0.0 0.00 0.00 0.00 91 1020.9
20260830111555 57 149 0.0 0.0 0.00 0.00 0.00 91 1020.8
20260830110057 56 149 0.0 0.0 0.00 0.00 0.00 91 1020.8
20260830104601 56 149 0.0 0.0 0.00 0.00 0.00 91 1020.8
20260830103053 56 149 0.0 0.0 0.00 0.00 0.00 90 1020.9
20260830101600 56 149 0.0 0.0 0.00 0.00 0.00 90 1020.8
20260830100052 56 149 0.0 0.0 0.00 0.00 0.00 90 1021.0
20260830094555 56 149 0.0 0.0 0.00 0.00 0.00 90 1021.0
20260830093052 56 149 0.0 0.0 0.00 0.00 0.00 90 1021.1
20260830091548 56 149 0.0 0.0 0.00 0.00 0.00 90 1021.2
20260830090044 57 149 0.0 0.0 0.00 0.00 0.00 90 1021.4
20260830084544 57 149 0.0 0.0 0.00 0.00 0.00 90 1021.4
20260830083049 57 149 0.0 0.0 0.00 0.00 0.00 89 1021.5
20260830081543 57 149 0.0 0.0 0.00 0.00 0.00 89 1021.4
20260830080047 57 149 0.0 0.0 0.00 0.00 0.00 89 1021.5
20260830074545 57 149 0.0 0.0 0.00 0.00 0.00 89 1021.6
20260830073046 57 149 0.0 0.0 0.00 0.00 0.00 89 1021.6
20260830071557 57 149 0.0 0.0 0.00 0.00 0.00 89 1021.6
20260830070040 57 149 0.0 0.0 0.00 0.00 0.00 89 1021.8
20260830064540 57 149 0.0 0.0 0.00 0.00 0.00 88 1021.8
20260830063041 58 149 0.0 0.0 0.00 0.00 0.00 86 1022.0
20260830061545 57 149 0.0 0.0 0.00 0.00 0.00 89 1022.1
20260830060040 57 149 0.0 0.0 0.00 0.00 0.00 88 1021.9
20260830054541 58 144 1.7 3.5 0.00 0.00 0.00 88 1022.0
20260830053040 58 144 0.0 0.0 0.00 0.00 0.00 88 1021.8
20260830051546 58 144 0.0 0.0 0.00 0.00 0.00 86 1021.9
20260830050104 58 144 0.0 0.0 0.00 0.00 0.00 86 1022.0
20260830044541 58 144 0.0 0.0 0.00 0.00 0.00 85 1022.0
20260830043040 58 144 0.0 0.0 0.00 0.00 0.00 84 1022.1
20260830041603 58 144 0.0 0.0 0.00 0.00 0.00 84 1022.1
20260830040044 59 144 0.0 0.0 0.00 0.00 0.00 83 1022.1
20260830034538 59 144 0.0 0.0 0.00 0.00 0.00 82 1022.1
20260830033038 60 144 0.0 0.0 0.00 0.00 0.00 81 1022.1
20260830031537 61 144 0.0 0.0 0.00 0.00 0.00 78 1022.2
20260830030040 61 144 0.0 0.0 0.00 0.00 0.00 79 1022.2
20260830024537 61 144 0.0 0.0 0.00 0.00 0.00 78 1022.1
20260830023036 61 144 0.0 0.0 0.00 0.00 0.00 78 1022.2
20260830021552 61 144 0.0 0.0 0.00 0.00 0.00 79 1022.4
20260830020036 62 144 0.0 0.0 0.00 0.00 0.00 77 1022.3